EHI
0 0 0 0 0 0 0 0 0 0 0 0 0 0 0 0 0 0 1 3 7 11 16 27 42 60 75 82 86 91 93 91 88 81 69 53 38 25 14 6 3 2 1 0
0 0 0 0 0 0 0 0 0 0 0 0 0 0 0 0 0 0 1 2 6 12 19 30 47 64 78 85 88 92 94 91 85 75 60 42 26 16 8 3 1 1 0 0
0 0 0 0 0 0 0 0 0 0 0 0 0 0 0 0 0 0 0 2 8 17 27 39 56 73 84 89 92 94 92 86 76 63 46 30 17 7 2 0 0 0 0 0
0 0 0 0 0 0 0 0 0 0 0 0 0 0 0 0 0 0 0 2 11 25 38 51 66 79 88 93 95 92 83 73 62 48 36 25 14 4 0 0 0 0 0 0
0 0 0 0 0 0 0 0 0 0 0 0 0 0 0 0 0 0 1 4 14 30 48 63 76 86 93 95 91 82 70 59 47 34 25 18 9 2 0 0 0 0 0 0
0 0 0 0 0 0 0 0 0 0 0 0 0 0 0 0 0 1 4 12 23 39 60 77 88 94 95 91 80 67 55 43 31 21 13 8 4 1 0 0 0 0 0 0
0 0 0 0 0 0 0 0 0 0 0 0 0 0 0 2 4 6 13 27 42 58 74 87 92 92 88 77 62 48 36 24 16 11 6 2 1 0 0 0 0 0 0 0
0 0 0 0 0 0 0 0 0 0 0 0 0 0 1 5 12 18 28 45 61 73 81 82 81 77 67 53 38 27 18 11 7 5 2 0 0 0 0 0 0 0 0 0
0 0 0 0 0 0 0 0 0 0 0 0 0 0 1 5 16 26 37 50 61 68 69 63 56 49 38 25 16 11 8 5 3 2 1 0 0 0 0 0 0 0 0 0
0 0 0 0 0 0 0 0 0 0 0 0 0 0 0 3 10 21 31 38 43 46 44 37 29 21 14 7 4 3 2 2 1 1 0 0 0 0 0 0 0 0 0 0
0 0 0 0 0 0 0 0 0 0 0 0 0 0 0 1 5 14 21 24 24 24 20 14 10 6 3 1 0 0 0 0 0 0 0 0 0 0 0 0 0 0 0 0
0 0 0 0 0 0 0 0 0 0 0 0 0 0 1 2 6 11 15 14 12 9 6 4 2 1 1 0 0 0 0 0 0 0 0 0 0 0 0 0 0 0 0 0
0 0 0 0 0 0 0 0 0 0 0 0 0 1 2 3 6 7 8 6 4 2 1 1 1 0 0 0 0 0 0 0 0 0 0 0 0 0 0 0 0 0 0 0
0 0 0 0 0 0 0 0 0 0 0 0 1 2 3 3 3 2 2 2 1 0 0 0 0 0 0 0 0 0 0 0 0 0 0 0 0 0 0 0 0 0 0 0
0 0 0 0 0 0 0 0 0 0 0 0 1 2 3 2 1 0 0 1 0 0 0 0 0 0 0 0 0 0 0 0 0 0 0 0 0 0 0 0 0 0 0 0
0 0 0 0 0 0 0 0 0 0 0 0 1 2 2 2 1 0 0 0 0 0 0 0 0 0 0 0 0 0 0 0 0 0 0 0 0 0 0 0 0 0 0 0
0 0 0 0 0 0 0 0 0 0 0 0 0 1 1 1 1 0 0 0 0 0 0 0 0 0 0 0 0 0 0 0 0 0 0 0 0 0 0 0 0 0 0 0
0 0 0 0 0 0 0 0 0 0 0 0 0 0 0 0 0 0 0 0 0 0 0 0 0 0 0 0 0 0 0 0 0 0 0 0 0 0 0 0 0 0 0 0
0 0 0 0 0 0 0 0 0 0 0 0 0 0 0 0 0 0 0 0 0 0 0 0 0 0 0 0 0 0 0 0 0 0 0 0 0 0 0 0 0 0 0 0
0 0 0 0 0 0 0 0 0 0 0 0 0 0 0 0 0 0 0 0 0 0 0 0 0 0 0 0 0 0 0 0 0 0 0 0 0 0 0 0 0 0 0 0
0 0 0 0 0 0 0 0 0 0 0 0 0 0 0 0 0 0 0 0 0 0 0 0 0 0 0 0 0 0 0 0 0 0 0 0 0 0 0 0 0 0 0 0
0 0 0 0 0 0 0 0 0 0 0 0 0 0 0 0 0 0 0 0 0 0 0 0 0 0 0 0 0 0 0 0 0 0 0 0 0 0 0 0 0 0 0 0
0 0 0 0 0 0 0 0 0 0 0 0 0 0 0 0 0 0 0 0 0 0 0 0 0 0 0 0 0 0 0 0 0 0 0 0 0 0 0 0 0 0 0 0
0 0 0 0 0 0 0 0 0 0 0 0 0 0 0 0 0 0 0 0 0 0 0 0 0 0 0 0 0 0 0 0 0 0 0 0 0 0 0 0 0 0 0 0
0 0 0 0 0 0 0 0 0 0 0 0 0 0 0 0 0 0 0 0 0 0 0 0 0 0 0 0 0 0 0 0 0 0 0 0 0 0 0 0 0 0 0 0
0 0 0 0 0 0 0 0 0 0 0 0 0 0 0 0 0 0 0 0 0 0 0 0 0 0 0 0 0 0 0 0 0 0 0 0 0 0 0 0 0 0 0 0
Wind_Speed
5 4 6 9 8 7 4 5 9 12 11 6 10 13 16 14 9 12 15 16 17 20 20 15 14 15 14 14 15 16 17 16 13 9 8 7 5 4 4 5 7 7 8 8
1 7 11 8 5 5 7 9 12 13 12 5 6 10 11 10 9 11 15 16 17 15 12 14 15 15 17 18 17 16 16 14 10 7 5 5 6 5 4 4 6 7 8 7
11 8 8 7 7 8 9 10 14 13 13 6 3 8 8 8 5 4 8 10 12 15 16 16 17 18 17 17 16 13 11 10 9 9 8 8 6 4 3 5 4 6 7 8
9 11 7 8 11 10 11 13 13 12 7 6 1 4 10 7 8 6 6 6 8 10 12 14 16 17 16 13 10 10 10 9 9 10 10 11 8 6 4 4 4 5 6 7
8 8 11 12 16 14 14 13 9 6 3 3 4 1 10 7 7 9 9 7 6 8 11 13 14 13 11 11 10 10 10 9 8 8 9 9 7 6 6 6 7 6 5 6
10 7 9 13 15 13 11 3 3 4 5 2 5 1 8 6 8 9 7 4 3 5 7 9 9 12 12 12 11 11 10 9 8 8 8 9 11 11 9 7 6 5 4 4
9 10 8 6 7 6 4 5 4 4 4 6 5 2 9 10 8 7 6 0 3 7 12 13 13 13 12 12 11 10 10 9 8 8 8 9 10 10 9 8 6 5 4 3
7 9 7 7 9 8 6 11 10 6 5 5 3 4 6 7 6 6 7 8 10 12 12 13 13 12 12 11 10 9 10 9 8 8 8 8 8 6 5 6 5 5 5 4
8 8 7 8 8 10 6 6 10 9 4 1 5 5 5 8 11 12 12 13 13 12 13 13 13 12 11 10 9 9 10 9 9 9 9 8 8 7 7 7 6 5 5 5
8 5 5 4 2 2 10 10 7 7 6 4 4 2 3 5 6 8 10 12 12 13 13 13 12 11 11 10 10 10 9 9 9 8 8 8 8 8 8 7 7 6 5 4
5 5 5 3 2 2 1 3 5 6 7 8 3 2 3 1 3 8 10 11 12 12 12 11 10 10 10 10 10 10 9 9 8 8 8 8 7 7 7 7 6 5 4 4
2 5 2 3 3 2 2 3 6 6 5 6 6 1 5 3 5 9 11 11 11 11 10 10 10 9 8 9 9 9 9 8 7 7 7 7 7 7 7 6 5 5 5 4
4 6 3 6 8 8 6 6 2 4 4 4 6 4 6 7 10 9 10 10 9 9 9 9 8 8 8 8 8 8 8 7 6 7 8 8 7 8 7 6 6 6 6 6
5 5 5 3 1 4 4 6 5 5 4 3 5 7 4 7 9 8 9 9 9 8 8 8 8 8 8 8 8 8 7 6 7 8 8 8 7 7 7 7 7 7 7 6
6 5 3 2 4 5 5 6 5 3 3 6 8 8 4 5 7 8 8 9 9 8 8 8 8 8 8 8 8 8 7 7 8 9 8 7 7 7 7 7 7 6 6 6
5 4 4 6 8 7 8 9 7 7 6 12 14 8 5 6 9 10 9 8 8 8 9 9 8 8 8 8 8 9 8 8 8 8 7 7 7 7 7 6 6 5 5 5
3 4 4 3 6 6 8 9 9 10 9 5 6 6 7 9 12 10 9 9 9 8 7 8 7 8 8 8 8 9 8 8 8 7 7 6 6 7 6 6 5 5 4 4
3 3 3 2 5 3 3 7 14 16 15 12 11 9 9 10 9 9 8 7 7 7 8 8 8 9 8 8 8 9 8 8 8 7 7 6 6 6 6 6 5 4 3 3
4 6 4 3 2 1 2 3 2 6 7 8 7 7 8 10 8 7 7 7 7 7 8 8 8 9 9 8 7 8 8 6 7 6 5 5 5 5 5 5 4 2 2 3
6 5 5 4 2 2 1 7 3 9 5 3 4 2 4 5 2 3 5 7 8 8 8 8 8 9 9 7 7 7 6 5 5 4 4 4 4 5 4 3 2 2 2 3
4 4 3 3 2 0 4 9 4 3 3 1 2 1 1 2 3 8 8 8 8 9 9 8 8 7 6 5 6 6 5 4 3 4 4 4 4 4 3 3 2 3 3 4
1 1 1 2 3 4 5 5 4 2 1 1 1 2 6 9 10 10 10 9 9 9 8 7 7 6 4 4 5 4 3 2 3 4 4 4 3 3 4 4 3 4 4 4
1 2 2 2 2 1 3 4 2 2 2 1 1 3 9 11 11 11 10 9 8 8 6 5 5 5 3 3 3 3 1 2 3 3 3 3 4 3 3 4 4 4 4 3
2 2 5 4 3 3 4 4 5 4 3 2 3 6 9 12 12 11 9 8 7 6 5 4 4 4 2 2 2 1 0 1 2 3 3 3 3 2 3 3 3 2 2 2
2 2 4 4 4 3 3 3 4 4 5 6 7 8 10 13 13 11 9 7 5 4 3 3 4 3 2 2 3 2 2 3 5 4 4 3 2 2 2 1 1 2 2 2
1 2 5 5 6 5 3 3 4 5 5 7 9 10 9 11 11 10 7 5 4 4 3 3 3 3 2 3 3 3 4 5 5 4 2 2 1 1 1 1 0 2 3 3
Wind_Direction
198 147 209 220 204 195 222 267 277 278 286 292 268 264 268 263 229 209 205 206 208 212 213 199 185 179 174 174 176 178 174 176 169 162 154 141 133 118 102 99 103 101 97 92
207 229 222 216 227 230 242 261 273 285 283 265 274 276 270 266 237 205 198 202 208 211 210 198 187 181 181 182 182 182 179 174 170 155 135 116 114 103 96 97 87 90 95 95
200 230 216 217 235 239 245 235 247 257 282 311 313 316 316 306 289 231 204 199 198 195 199 191 185 185 181 182 183 178 171 158 149 135 120 113 99 88 82 82 80 82 92 94
225 237 235 222 234 228 249 238 233 243 258 280 335 290 296 302 319 299 269 245 215 198 192 184 179 179 179 174 161 151 147 144 138 137 142 144 142 139 135 125 111 97 93 99
231 215 214 230 236 228 233 243 233 233 224 301 333 294 284 310 302 288 284 270 239 208 185 178 173 166 149 138 133 128 125 122 123 129 134 130 122 118 121 119 116 106 98 102
237 240 206 220 237 229 222 227 8 49 70 333 272 246 285 273 258 271 281 285 243 174 144 132 119 113 111 109 108 110 110 105 110 117 123 133 134 133 134 133 130 121 110 103
270 272 255 241 260 262 166 106 37 352 5 260 267 233 258 274 278 261 263 271 82 110 119 118 116 112 108 105 103 103 105 101 102 109 115 126 130 134 139 141 137 132 124 119
225 270 251 228 211 216 196 146 158 189 216 270 313 225 265 306 351 47 73 78 77 89 101 106 106 103 100 98 94 94 97 98 99 100 100 106 112 112 117 121 126 131 130 128
195 242 259 241 217 174 170 181 172 150 181 248 282 280 326 8 37 53 66 76 79 82 88 91 89 87 88 87 85 92 95 93 94 98 99 98 100 103 104 104 104 110 116 124
181 234 286 299 335 246 173 164 112 129 165 228 274 318 320 343 41 67 78 87 91 91 89 87 86 88 88 90 90 84 90 94 93 94 98 101 97 98 100 99 98 101 106 113
175 193 294 5 52 292 80 132 136 143 158 162 186 294 337 304 83 98 96 99 103 101 101 100 99 99 100 100 100 99 95 95 94 95 96 95 94 97 98 99 102 103 103 106
32 137 227 265 274 254 155 172 150 158 203 161 144 171 358 18 54 92 101 105 109 110 108 106 106 103 100 103 103 104 101 99 99 98 94 91 90 91 92 92 90 88 82 73
49 86 64 356 2 7 36 25 58 118 116 139 135 138 18 48 62 70 88 95 100 100 97 95 95 95 94 93 92 91 93 97 93 90 88 83 84 86 86 83 78 73 71 64
82 74 111 131 317 326 349 360 38 86 104 111 127 121 40 54 70 72 79 87 95 96 99 98 94 94 94 93 93 94 88 88 88 85 83 80 76 77 77 73 68 66 66 66
70 70 52 39 8 12 10 4 22 58 136 136 131 114 90 66 78 83 90 92 94 97 101 107 107 105 102 97 91 89 86 83 87 84 79 76 72 71 67 65 64 63 65 73
49 68 43 13 9 15 23 17 47 47 67 118 115 98 89 71 69 66 70 84 91 95 101 104 105 103 102 101 97 90 81 77 80 80 76 71 69 67 68 68 68 66 62 61
33 68 65 355 343 29 18 6 71 64 40 99 107 114 114 78 62 53 51 64 80 87 93 98 97 94 94 95 97 93 87 78 72 71 72 71 72 70 61 69 67 61 58 61
125 90 101 52 39 62 94 75 84 75 52 59 85 95 99 95 78 53 45 62 75 82 89 91 94 94 90 89 88 88 82 78 76 75 76 76 79 79 75 69 61 54 54 58
140 131 110 102 115 173 95 30 49 104 62 39 83 103 122 129 104 66 44 57 75 85 91 93 97 98 93 88 87 88 84 84 87 85 83 84 93 95 84 71 57 46 51 41
51 88 108 110 139 209 327 326 356 107 101 14 57 101 173 185 166 127 95 85 86 89 92 95 94 93 91 86 86 90 91 91 95 97 95 98 102 101 96 86 62 42 55 44
23 36 90 126 167 244 321 320 355 132 171 320 36 15 66 104 122 122 114 104 101 98 94 93 92 90 91 94 96 98 101 104 110 100 91 94 107 111 103 78 55 52 53 42
124 90 116 138 180 231 330 25 74 158 162 55 35 71 108 112 114 117 117 113 107 100 92 91 92 89 88 93 97 96 102 120 109 100 92 87 82 89 92 79 55 48 53 42
78 188 163 138 157 92 38 85 75 92 87 20 24 125 131 128 125 122 118 114 108 103 95 85 90 87 71 77 99 105 141 139 118 108 107 98 85 73 84 88 76 55 46 39
326 110 103 96 105 100 76 69 53 57 62 50 111 128 131 127 127 124 120 113 107 101 97 92 91 88 67 44 63 123 229 133 118 123 124 121 110 84 74 83 95 86 59 35
288 60 92 111 144 125 86 77 81 73 74 84 94 110 123 126 126 125 122 120 120 118 113 107 105 100 81 47 40 38 53 87 99 116 127 126 125 125 118 116 149 146 182 183
295 153 163 189 182 159 157 129 112 104 102 110 111 108 111 120 123 124 125 130 132 132 121 111 108 102 92 79 63 57 78 101 111 114 125 139 145 151 165 176 292 240 210 212